Preview of NWS' New Version of Forecast
This preview is not operational and should not be used for support decisions.

Regional Weather Roundup (RWR)

Issued by National Weather Service (NWS)

                            
000
ASUS44 KMEG 211000
RWRTN 
TENNESSEE HOURLY STATE WEATHER ROUNDUP
NATIONAL WEATHER SERVICE MEMPHIS TN
500 AM CDT SAT SEP 21 2019

TNZ002-004-019-021-049-052-054-088>092-211100-
WEST TENNESSEE
  
CITY           SKY/WX    TMP DP  RH WIND       PRES   REMARKS
MEMPHIS INTL   FAIR      72  61  68 S7        30.17R                  
NWS MEMPHIS      N/A     69 N/A N/A MISG        N/A                   
JACKSON        FAIR      62  60  93 CALM      30.20R                  
DYERSBURG      FAIR      67  64  90 SE5       30.18S                  
$$

TNZ008-025-027-028-033-062-065-066-211100-
NORTH MIDDLE TENNESSEE
  
CITY           SKY/WX    TMP DP  RH WIND       PRES   REMARKS
NASHVILLE      FAIR      68  57  68 CALM      30.26R                  
CLARKSVILLE    FAIR      65  61  87 CALM      30.22S                  
SMYRNA         FAIR      64  60  87 SE3       30.27R                  
CROSSVILLE     FAIR      59  55  87 CALM      30.33R                  
$$

TNZ061-075-076-078-094-096-097-211100-
SOUTH MIDDLE TENNESSEE
  
CITY           SKY/WX    TMP DP  RH WIND       PRES   REMARKS
$$

TNZ017-018-042-046-047-211100-
NORTHEAST TENNESSEE
  
CITY           SKY/WX    TMP DP  RH WIND       PRES   REMARKS
TRI CITIES     MOCLDY    59  57  93 CALM      30.33R                  
$$

TNZ012-013-036-069-073-074-211100-
CENTRAL EAST TENNESSEE
  
CITY           SKY/WX    TMP DP  RH WIND       PRES   REMARKS
KNOXVILLE      FAIR      64  60  87 CALM      30.28R                  
OAK RIDGE      FAIR      65  60  84 CALM      30.31R                  
$$

TNZ083-085-099-211100-
SOUTHEAST TENNESSEE
  
CITY           SKY/WX    TMP DP  RH WIND       PRES   REMARKS
CHATTANOOGA    FAIR      62  58  86 CALM      30.30R                  
$$

SKY/WX REPORTED AS FAIR MEANS FEW OR NO CLOUDS BELOW
12 THOUSAND FEET.